Lafayette, LA

6:00 PM CDT on July 27, 2017 (GMT -0500)
Lafayette Regional

Weather History for KLFT - September, 2012

Change the Weather History Date:

Sunday, September 30, 2012

  Actual Average Record
Temperature  
Mean Temperature 73 °F 75 °F  
Max Temperature 83 °F 85 °F 97 °F (1928)
Min Temperature 62 °F 65 °F 45 °F (1967)
Degree Days  
Heating Degree Days 0 0  
Month to date heating degree days 0 0  
Since 1 July heating degree days 0 1  
Cooling Degree Days 8 10  
Month to date cooling degree days 425 427  
Year to date cooling degree days 2872 2688  
Growing Degree Days 24 (Base 50)    
Moisture  
Dew Point 71 °F    
Average Humidity 84    
Maximum Humidity 93    
Minimum Humidity 74    
Precipitation  
Precipitation 0.81 in 0.15 in 4.10 in (1898)
Month to date precipitation 5.93 4.72  
Year to date precipitation 57.65 45.34  
Sea Level Pressure  
Sea Level Pressure 29.66 in    
Wind  
Wind Speed 9 mph (SW)    
Max Wind Speed 20 mph    
Max Gust Speed 30 mph    
Visibility 7 miles    
Events Rain    
T = Trace of Precipitation, MM = Missing Value Source: NWS Daily Summary

Daily Weather History Graph

Daily Weather History Graph

Search for Another Location

Airport or City:

Trip Planner

Search our weather history database for the weather conditions in past years. The results will help you decide how hot, cold, wet, or windy it might be!

Date:

Astronomy

Sep. 30, 2012 Rise Set
Actual Time 7:01 AM CDT 6:53 PM CDT
Civil Twilight 6:37 AM CDT 7:17 PM CDT
Nautical Twilight 6:09 AM CDT 7:45 PM CDT
Astronomical Twilight 5:41 AM CDT 8:13 PM CDT
Moon 7:05 PM CDT (9/30) 7:26 AM CDT (9/30)
Length of Visible Light 12h 40m
Length of Day
11h 52m
Full, 100% of the Moon is Illuminated
Sep 30
Full
Oct 8
Last Quarter
Oct 15
New
Oct 21
First Quarter
Oct 29
Full

Hourly Weather History & Observations

Time (CDT) Temp. Heat Index Dew Point Humidity Pressure Visibility Wind Dir Wind Speed Gust Speed Precip Events Conditions
12:01 AM 75.2 °F - 73.4 °F 94% 29.82 in 10.0 mi SSE 4.6 mph - N/A   Overcast
12:10 AM 75.2 °F - 73.4 °F 94% 29.83 in 9.0 mi SW 11.5 mph - 0.01 in Rain Light Rain
12:16 AM 73.4 °F - 69.8 °F 88% 29.83 in 1.8 mi SW 15.0 mph 23.0 mph 0.21 in Rain Heavy Rain
12:25 AM 71.6 °F - 69.8 °F 94% 29.82 in 1.0 mi SSW 10.4 mph 20.7 mph 0.40 in Rain Heavy Rain
12:33 AM 71.6 °F - 69.8 °F 94% 29.81 in 3.0 mi South 8.1 mph - 0.44 in Rain Heavy Rain
12:46 AM 71.6 °F - 69.8 °F 94% 29.81 in 6.0 mi South 4.6 mph - 0.46 in Rain Rain
12:53 AM 72.0 °F - 70.0 °F 93% 29.81 in 5.0 mi South 6.9 mph - 0.48 in Rain Heavy Rain
1:11 AM 71.6 °F - 69.8 °F 94% 29.81 in 1.8 mi Calm Calm - 0.10 in Rain Heavy Rain
1:20 AM 71.6 °F - 69.8 °F 94% 29.81 in 3.0 mi SSW 5.8 mph - 0.13 in Rain Heavy Rain
1:31 AM 71.6 °F - 69.8 °F 94% 29.80 in 8.0 mi Calm Calm - 0.14 in Rain Light Rain
1:53 AM 72.0 °F - 70.0 °F 93% 29.80 in 10.0 mi Calm Calm - 0.14 in   Overcast
2:53 AM 73.0 °F - 71.1 °F 93% 29.76 in 10.0 mi ESE 4.6 mph - 0.00 in   Overcast
3:53 AM 73.0 °F - 71.1 °F 93% 29.73 in 9.0 mi ESE 3.5 mph - 0.01 in Rain Light Rain
4:49 AM 73.4 °F - 71.6 °F 94% 29.70 in 10.0 mi ESE 3.5 mph - 0.00 in   Overcast
4:50 AM 73.0 °F - 72.0 °F 96% 29.70 in 10.0 mi ESE 3.5 mph - 0.00 in   Overcast
5:02 AM 73.4 °F - 71.6 °F 94% 29.70 in 3.0 mi Variable 5.8 mph - 0.04 in Rain Heavy Rain
5:14 AM 73.4 °F - 71.6 °F 94% 29.70 in 10.0 mi SSE 5.8 mph - 0.04 in   Mostly Cloudy
5:26 AM 73.4 °F - 71.6 °F 94% 29.70 in 10.0 mi Variable 3.5 mph - 0.04 in   Scattered Clouds
5:53 AM 73.9 °F - 72.0 °F 93% 29.69 in 10.0 mi Variable 3.5 mph - 0.04 in   Clear
6:53 AM 73.0 °F - 71.1 °F 93% 29.69 in 8.0 mi Variable 4.6 mph - 0.01 in Rain Light Rain
7:43 AM 73.4 °F - 71.6 °F 94% 29.71 in 1.8 mi South 18.4 mph 29.9 mph 0.15 in Rain Heavy Rain
7:48 AM 73.4 °F - 71.6 °F 94% 29.71 in 1.8 mi South 17.3 mph 29.9 mph 0.18 in Rain Heavy Rain
7:53 AM 73.0 °F - 70.0 °F 90% 29.71 in 4.0 mi South 12.7 mph 26.5 mph 0.19 in Rain Rain
8:01 AM 73.4 °F - 69.8 °F 88% 29.70 in 7.0 mi South 11.5 mph 23.0 mph 0.02 in Rain Heavy Rain
8:53 AM 73.4 °F - 69.8 °F 88% 29.68 in 10.0 mi South 8.1 mph - N/A   Mostly Cloudy
9:53 AM 79.0 °F - 73.0 °F 82% 29.66 in 10.0 mi South 8.1 mph - N/A   Mostly Cloudy
10:53 AM 82.0 °F 88.6 °F 75.0 °F 79% 29.65 in 10.0 mi South 12.7 mph 23.0 mph 0.00 in   Overcast
11:53 AM 82.0 °F 87.9 °F 73.9 °F 76% 29.62 in 10.0 mi South 10.4 mph - 0.00 in   Overcast
12:32 PM 80.6 °F 86.2 °F 75.2 °F 84% 29.61 in 4.0 mi SSW 8.1 mph - 0.08 in Rain Rain
12:53 PM 78.1 °F - 73.9 °F 87% 29.60 in 8.0 mi WSW 11.5 mph 18.4 mph 0.10 in Rain Rain
1:01 PM 77.0 °F - 73.4 °F 89% 29.60 in 1.8 mi SW 9.2 mph 17.3 mph 0.06 in Rain Heavy Rain
1:11 PM 77.0 °F - 73.4 °F 89% 29.61 in 3.0 mi South 15.0 mph 21.9 mph 0.09 in Rain Light Rain
1:20 PM 75.2 °F - 73.4 °F 94% 29.59 in 1.8 mi SW 5.8 mph - 0.13 in Rain Heavy Rain
1:32 PM 75.2 °F - 73.4 °F 94% 29.59 in 1.2 mi West 11.5 mph - 0.19 in Rain Heavy Rain
1:40 PM 75.2 °F - 73.4 °F 94% 29.59 in 3.0 mi WSW 8.1 mph - 0.19 in Rain Light Rain
1:53 PM 77.0 °F - 73.9 °F 90% 29.58 in 10.0 mi WSW 6.9 mph - 0.19 in   Overcast
2:00 PM 75.2 °F - 73.4 °F 94% 29.58 in 10.0 mi SW 5.8 mph - N/A   Overcast
2:53 PM 80.1 °F 84.2 °F 73.0 °F 79% 29.55 in 10.0 mi WSW 8.1 mph - N/A   Mostly Cloudy
3:13 PM 78.8 °F - 73.4 °F 83% 29.55 in 2.5 mi WSW 6.9 mph - 0.03 in Rain Heavy Rain
3:23 PM 78.8 °F - 73.4 °F 83% 29.54 in 3.0 mi West 5.8 mph - 0.06 in Rain Rain
3:53 PM 81.0 °F 86.2 °F 73.9 °F 79% 29.54 in 10.0 mi SW 6.9 mph - 0.06 in   Mostly Cloudy
4:53 PM 81.0 °F 84.9 °F 71.1 °F 72% 29.52 in 10.0 mi SSW 15.0 mph - N/A   Mostly Cloudy
5:53 PM 79.0 °F - 71.1 °F 77% 29.53 in 10.0 mi SW 10.4 mph - N/A   Mostly Cloudy
6:53 PM 78.1 °F - 71.1 °F 79% 29.53 in 10.0 mi SW 10.4 mph - N/A   Overcast
7:33 PM 75.2 °F - 69.8 °F 83% 29.54 in 9.0 mi WNW 12.7 mph - 0.00 in Rain Light Rain
7:53 PM 73.0 °F - 70.0 °F 90% 29.55 in 3.0 mi NW 12.7 mph 20.7 mph 0.05 in Rain Heavy Rain
8:42 PM 71.6 °F - 68.0 °F 88% 29.57 in 10.0 mi WNW 12.7 mph - 0.00 in   Overcast
8:53 PM 71.1 °F - 68.0 °F 90% 29.58 in 10.0 mi WNW 10.4 mph - 0.00 in   Overcast
9:53 PM 70.0 °F - 66.9 °F 90% 29.60 in 10.0 mi NW 12.7 mph - N/A   Overcast
10:08 PM 68.0 °F - 64.4 °F 88% 29.61 in 8.0 mi WNW 15.0 mph 21.9 mph N/A   Overcast
10:15 PM 66.2 °F - 64.4 °F 94% 29.61 in 10.0 mi NW 15.0 mph 23.0 mph N/A   Overcast
10:53 PM 66.2 °F - 62.6 °F 88% 29.62 in 10.0 mi NW 10.4 mph - N/A   Overcast
11:53 PM 64.0 °F - 61.0 °F 90% 29.63 in 10.0 mi NW 13.8 mph - N/A   Overcast